Meteo pe oră la Czyzowka

Astăzi, 14 Aprilie, Miercuri

Timp Temperatura Precipitaţii Vânt Presiune Umiditate
00:00 -1°C° 0.6 mm 4 m/s 734 mmHg 94%
01:00 -2°C° 0 mm 4 m/s 733 mmHg 94%
02:00 -2°C° 0.6 mm 4 m/s 733 mmHg 95%
03:00 -1°C° 0.6 mm 3 m/s 733 mmHg 96%
04:00 -1°C° 0.6 mm 3 m/s 733 mmHg 97%
05:00 -1°C° 0.7 mm 3 m/s 733 mmHg 98%
06:00 -1°C° 0.7 mm 3 m/s 733 mmHg 98%
07:00 -1°C° 0 mm 3 m/s 733 mmHg 99%
08:00 -1°C° 0.3 mm 4 m/s 734 mmHg 95%
09:00 -1°C° 0.3 mm 4 m/s 734 mmHg 91%
10:00 0°C° 0.3 mm 5 m/s 734 mmHg 86%
11:00 0°C° 0.2 mm 5 m/s 734 mmHg 84%
12:00 0°C° 0.2 mm 5 m/s 733 mmHg 81%
13:00 +1°C° 0.2 mm 5 m/s 733 mmHg 78%
14:00 +1°C° 0.1 mm 5 m/s 733 mmHg 77%
15:00 +1°C° 0.1 mm 5 m/s 733 mmHg 77%
16:00 +1°C° 0.1 mm 4 m/s 733 mmHg 76%
17:00 +1°C° 0.1 mm 4 m/s 733 mmHg 80%
18:00 +1°C° 0.1 mm 3 m/s 733 mmHg 84%
19:00 +1°C° 0.1 mm 3 m/s 733 mmHg 88%
20:00 0°C° 0.1 mm 3 m/s 733 mmHg 91%
21:00 0°C° 0.1 mm 3 m/s 733 mmHg 93%
22:00 0°C° 0.1 mm 3 m/s 733 mmHg 96%
23:00 0°C° 0.3 mm 3 m/s 733 mmHg 96%

Mâine, 15 Aprilie, Joi

Timp Temperatura Precipitaţii Vânt Presiune Umiditate
00:00 -1°C° 0.3 mm 4 m/s 733 mmHg 97%
01:00 -1°C° 0.3 mm 4 m/s 732 mmHg 97%
02:00 -1°C° 0.3 mm 4 m/s 732 mmHg 97%
03:00 -2°C° 0.3 mm 4 m/s 732 mmHg 97%
04:00 -2°C° 0.3 mm 4 m/s 732 mmHg 97%
05:00 -2°C° 0.5 mm 4 m/s 732 mmHg 97%
06:00 -2°C° 0.5 mm 4 m/s 732 mmHg 97%
07:00 -2°C° 0.5 mm 4 m/s 732 mmHg 97%
08:00 -2°C° 0.5 mm 4 m/s 732 mmHg 98%
09:00 -2°C° 0.5 mm 4 m/s 732 mmHg 98%
10:00 -1°C° 0.5 mm 4 m/s 732 mmHg 98%
11:00 -1°C° 0.6 mm 4 m/s 732 mmHg 99%
12:00 -1°C° 0.6 mm 4 m/s 732 mmHg 99%
13:00 -1°C° 0.6 mm 4 m/s 732 mmHg 99%
14:00 -2°C° 0.4 mm 4 m/s 732 mmHg 98%
15:00 -2°C° 0.4 mm 4 m/s 732 mmHg 98%
16:00 -2°C° 0.4 mm 4 m/s 732 mmHg 98%
17:00 -2°C° 0.2 mm 4 m/s 732 mmHg 98%
18:00 -1°C° 0.2 mm 3 m/s 732 mmHg 98%
19:00 -1°C° 0.2 mm 3 m/s 732 mmHg 98%
20:00 -1°C° 0.2 mm 3 m/s 732 mmHg 98%
21:00 -1°C° 0.2 mm 3 m/s 732 mmHg 98%
22:00 -1°C° 0.2 mm 3 m/s 732 mmHg 98%
23:00 -1°C° 0.1 mm 3 m/s 731 mmHg 98%

Poimâine, 16 Aprilie, Vineri

Timp Temperatura Precipitaţii Vânt Presiune Umiditate
00:00 -1°C° 0.1 mm 3 m/s 731 mmHg 98%
01:00 -1°C° 0.1 mm 3 m/s 731 mmHg 98%
02:00 -1°C° 0.1 mm 3 m/s 731 mmHg 98%
03:00 -1°C° 0.1 mm 3 m/s 731 mmHg 98%
04:00 -1°C° 0.1 mm 3 m/s 731 mmHg 98%
05:00 -1°C° 0.1 mm 3 m/s 731 mmHg 98%
06:00 -1°C° 0.1 mm 3 m/s 731 mmHg 98%
07:00 -2°C° 0.1 mm 4 m/s 731 mmHg 98%
08:00 -1°C° 0.1 mm 3 m/s 731 mmHg 98%
09:00 0°C° 0.1 mm 3 m/s 732 mmHg 98%
10:00 0°C° 0.1 mm 3 m/s 732 mmHg 98%
11:00 0°C° 0.1 mm 3 m/s 732 mmHg 98%
12:00 0°C° 0.1 mm 3 m/s 732 mmHg 98%
13:00 0°C° 0.1 mm 3 m/s 732 mmHg 98%
14:00 0°C° 0.2 mm 3 m/s 732 mmHg 99%
15:00 0°C° 0.2 mm 3 m/s 732 mmHg 99%
16:00 0°C° 0.2 mm 3 m/s 732 mmHg 99%
17:00 0°C° 0.4 mm 3 m/s 732 mmHg 99%
18:00 0°C° 0.4 mm 3 m/s 732 mmHg 99%
19:00 +1°C° 0.4 mm 2 m/s 733 mmHg 99%
20:00 +1°C° 0.2 mm 2 m/s 733 mmHg 99%
21:00 +1°C° 0.2 mm 2 m/s 733 mmHg 99%
22:00 +1°C° 0.2 mm 2 m/s 733 mmHg 99%
23:00 +1°C° 0.1 mm 2 m/s 732 mmHg 99%

17 Aprilie, Sâmbătă

Timp Temperatura Precipitaţii Vânt Presiune Umiditate
00:00 +1°C° 0.1 mm 2 m/s 732 mmHg 99%
01:00 +1°C° 0.1 mm 2 m/s 732 mmHg 99%
02:00 +1°C° 0.3 mm 2 m/s 732 mmHg 99%
03:00 +2°C° 0.3 mm 2 m/s 732 mmHg 99%
04:00 +2°C° 0.3 mm 2 m/s 732 mmHg 99%
05:00 +2°C° 0.3 mm 2 m/s 732 mmHg 99%
06:00 +2°C° 0.3 mm 2 m/s 732 mmHg 99%
07:00 +2°C° 0.3 mm 2 m/s 732 mmHg 99%
08:00 +2°C° 0.3 mm 2 m/s 732 mmHg 99%
09:00 +2°C° 0.3 mm 2 m/s 732 mmHg 99%
10:00 +3°C° 0.3 mm 2 m/s 732 mmHg 99%
11:00 +3°C° 0.1 mm 2 m/s 732 mmHg 99%
12:00 +3°C° 0.1 mm 2 m/s 732 mmHg 99%
13:00 +4°C° 0.1 mm 1 m/s 732 mmHg 99%
14:00 +5°C° 0 mm 1 m/s 732 mmHg 98%
15:00 +5°C° 0 mm 1 m/s 732 mmHg 98%
16:00 +5°C° 0 mm 1 m/s 732 mmHg 98%
17:00 +5°C° 0 mm 1 m/s 732 mmHg 99%
18:00 +5°C° 0 mm 1 m/s 732 mmHg 99%
19:00 +5°C° 0 mm 1 m/s 732 mmHg 99%
20:00 +5°C° 0 mm 1 m/s 732 mmHg 99%
21:00 +5°C° 0 mm 1 m/s 732 mmHg 99%
22:00 +4°C° 0 mm 0 m/s 732 mmHg 99%
23:00 +4°C° 0 mm 0 m/s 732 mmHg 99%

18 Aprilie, Duminică

Timp Temperatura Precipitaţii Vânt Presiune Umiditate
00:00 +5°C° 0 mm 1 m/s 732 mmHg 99%
01:00 +5°C° 0 mm 1 m/s 731 mmHg 99%
02:00 +5°C° 0 mm 1 m/s 731 mmHg 99%
03:00 +4°C° 0 mm 1 m/s 731 mmHg 99%
04:00 +3°C° 0 mm 2 m/s 731 mmHg 99%
05:00 +4°C° 0 mm 2 m/s 731 mmHg 96%
06:00 +4°C° 0 mm 2 m/s 732 mmHg 94%
07:00 +4°C° 0 mm 2 m/s 732 mmHg 92%
08:00 +4°C° 0 mm 3 m/s 732 mmHg 87%
09:00 +5°C° 0 mm 3 m/s 732 mmHg 82%
10:00 +7°C° 0 mm 4 m/s 732 mmHg 76%
11:00 +7°C° 0 mm 4 m/s 732 mmHg 75%
12:00 +7°C° 0 mm 4 m/s 732 mmHg 74%
13:00 +8°C° 0 mm 4 m/s 732 mmHg 72%
14:00 +9°C° 0 mm 3 m/s 732 mmHg 73%
15:00 +9°C° 0 mm 3 m/s 731 mmHg 74%
16:00 +9°C° 0 mm 2 m/s 731 mmHg 75%
17:00 +8°C° 0 mm 2 m/s 731 mmHg 78%
18:00 +8°C° 0 mm 2 m/s 731 mmHg 81%
19:00 +7°C° 0 mm 2 m/s 731 mmHg 83%
20:00 +7°C° 0 mm 2 m/s 731 mmHg 84%
21:00 +7°C° 0 mm 2 m/s 731 mmHg 84%
22:00 +7°C° 0 mm 2 m/s 731 mmHg 85%
23:00 +6°C° 0 mm 2 m/s 731 mmHg 86%

19 Aprilie, Luni

Timp Temperatura Precipitaţii Vânt Presiune Umiditate
00:00 +6°C° 0 mm 2 m/s 731 mmHg 87%
01:00 +6°C° 0 mm 2 m/s 731 mmHg 88%
02:00 +6°C° 0.1 mm 2 m/s 731 mmHg 89%
03:00 +6°C° 0.1 mm 2 m/s 731 mmHg 90%
04:00 +6°C° 0.1 mm 2 m/s 731 mmHg 91%
05:00 +5°C° 0.2 mm 3 m/s 731 mmHg 92%
06:00 +5°C° 0.2 mm 3 m/s 731 mmHg 93%
07:00 +5°C° 0.2 mm 3 m/s 731 mmHg 94%
08:00 +5°C° 0.2 mm 3 m/s 731 mmHg 94%
09:00 +5°C° 0.2 mm 3 m/s 730 mmHg 94%
10:00 +5°C° 0.2 mm 3 m/s 730 mmHg 94%
11:00 +7°C° 0.3 mm 3 m/s 730 mmHg 94%
12:00 +7°C° 0.3 mm 3 m/s 730 mmHg 93%
13:00 +7°C° 0.3 mm 3 m/s 730 mmHg 93%
14:00 +7°C° 0.1 mm 3 m/s 730 mmHg 91%
15:00 +7°C° 0.1 mm 3 m/s 730 mmHg 90%
16:00 +8°C° 0.1 mm 3 m/s 730 mmHg 89%
17:00 +7°C° 0 mm 3 m/s 730 mmHg 91%
18:00 +7°C° 0 mm 3 m/s 729 mmHg 92%
19:00 +7°C° 0 mm 2 m/s 729 mmHg 94%
20:00 +7°C° 0 mm 2 m/s 729 mmHg 95%
21:00 +5°C° 0 mm 3 m/s 729 mmHg 95%
22:00 +5°C° 0 mm 3 m/s 729 mmHg 96%
23:00 +5°C° 0 mm 3 m/s 729 mmHg 96%
Arată mai mult

Formular de consimțământ

Meteoprog și furnizorii noștri de servicii pot stoca și accesa date personale, precum cookies, identificatori de dispozitiv sau alte tehnologii similare pe dispozitivul dumneavoastră și procesa astfel de date pentru a personaliza conținutul și reclamele, dar și pentru a oferi caracteristici de social media și pentru a analiza traficul.

  • Stocarea și/sau accesarea informațiilor pe dispozitivul dumneavoastră

    Cookies, identificatori de dispozitiv sau alte informații pot fi stocate sau accesate pe dispozitiv în scopurile indicate mai sus.

  • Reclame și conținut personalizat, evaluarea reclamelor și a conținutului, informații despre audiențe și dezvoltarea produselor

    Reclamele și conținutul pot fi personalizate pe baza unui profil. Pot fi adăugate date suplimentare pentru a personaliza mai bine reclamele și conținutul. Performanța reclamelor și conținutului poate fi măsurată. Pot fi obținute informații despre utilizatorii care au văzut reclamele și conținutul. Aceste date pot fi utilizate pentru a dezvolta sau îmbunătăți experiența utilizatorilor, sistemele și software-ul.

Dând clic pe ‘Sunt de acord’, permiteți utilizarea cookie-urilor menționate, a identificatorilor de dispozitiv, balizelor web sau altor tehnologii similare. Setările pot fi modificate din browser-ul dispozitivului dumneavoastră.

În anumite scopuri, interesele legitime pot prima asupra consimțământului. Puteți citi mai multe informații în acest sens în Politica privind Confidențialitatea Datelor și Cookie.